Lapse_Rate
9.5 6.1 -0.1 0.1 0.6 1.2 1.3 1.8 2.1 2.4 2.7 2.9 3.0 3.1 3.3 3.4 3.4 3.3 3.6 3.8 4.4 5.0 5.1 5.1 5.3 5.6 5.8 5.7 5.4 5.2 5.1 4.9 5.0 5.3 5.3 5.5 5.3 5.3 5.0 5.2 6.7 7.4 5.5
9.7 5.2 -0.1 0.6 1.0 1.3 1.4 1.7 2.2 2.6 2.9 3.0 3.1 3.2 3.2 3.4 3.6 3.6 3.9 4.1 4.4 5.1 5.4 5.1 5.4 5.7 5.9 5.6 5.3 5.2 5.0 4.9 5.0 5.3 5.2 5.5 5.5 5.5 5.9 6.8 8.1 6.0 5.9
9.7 6.3 2.1 0.5 1.1 1.3 1.6 1.8 2.6 3.1 3.3 3.3 3.2 3.3 3.2 3.5 3.7 4.0 4.0 4.2 4.5 5.0 5.6 5.4 5.5 5.7 5.6 5.4 5.2 5.1 5.0 4.9 5.1 5.5 5.7 9.2 8.8 6.1 6.1 6.1 5.4 5.1 5.5
9.9 8.8 4.9 0.6 1.3 1.6 1.7 1.8 2.6 3.2 3.5 3.4 3.4 3.3 3.3 3.6 3.8 4.1 4.2 4.4 4.5 5.0 5.5 5.7 5.6 5.4 5.1 5.0 4.9 4.9 4.9 4.8 5.2 5.9 8.0 9.1 8.6 5.7 6.1 6.0 5.9 5.7 6.2
9.9 9.8 7.7 0.9 1.4 1.8 1.9 1.9 2.4 3.0 3.0 3.1 3.3 3.5 3.5 3.7 3.9 4.0 4.2 4.4 4.4 4.9 5.3 5.8 5.5 4.8 4.7 4.5 4.5 4.6 4.5 4.8 5.1 5.9 7.9 8.6 7.8 6.2 6.0 6.0 5.7 6.3 6.6
9.8 9.9 2.9 1.1 1.5 1.9 2.1 2.1 2.3 2.7 2.7 2.9 3.1 3.5 3.7 3.8 3.8 3.8 4.0 4.3 4.6 4.9 5.2 5.2 4.8 4.4 4.4 4.2 4.2 4.2 4.3 4.9 4.9 9.3 8.5 8.2 8.7 6.2 6.3 6.4 6.4 6.4 6.4
9.7 9.6 5.6 1.9 1.7 2.1 2.5 2.4 2.4 2.6 2.7 2.9 3.3 3.5 3.7 3.8 3.7 3.6 3.8 4.2 4.6 4.9 4.9 4.5 4.0 4.3 3.9 3.9 3.9 3.9 4.3 5.0 7.7 9.1 8.5 8.5 7.9 6.5 6.7 7.0 6.9 6.2 7.1
9.6 9.7 7.4 2.4 2.1 2.5 2.6 2.5 2.5 2.7 2.8 3.1 3.3 3.6 3.7 3.7 3.5 3.5 3.7 4.0 4.5 4.8 4.6 4.1 4.0 3.8 3.8 3.8 3.8 3.9 4.6 4.9 7.7 9.0 9.0 7.7 5.8 6.0 5.7 5.3 5.5 5.4 6.2
9.7 9.6 8.4 5.4 4.1 2.6 2.9 2.8 2.7 2.8 3.0 3.2 3.3 3.5 3.6 3.6 3.5 3.6 3.8 4.0 4.3 4.8 4.5 4.1 3.6 3.7 3.6 3.8 3.7 4.0 4.5 5.1 6.7 9.1 9.2 7.4 4.4 5.2 4.8 4.1 3.6 4.7 6.3
9.5 9.4 8.2 7.8 6.2 5.8 5.2 2.8 2.8 3.0 3.1 3.3 3.4 3.4 3.5 3.7 3.7 3.7 3.9 4.0 4.2 4.3 4.2 3.9 3.8 3.4 3.7 3.7 3.8 4.0 4.4 5.1 8.1 8.9 9.5 6.1 4.7 5.2 5.3 5.1 4.2 4.0 4.6
9.3 9.4 8.4 8.3 9.4 7.8 7.2 5.0 2.6 3.0 3.1 3.2 3.6 3.4 3.8 6.4 5.6 5.2 5.8 5.1 4.2 4.1 3.8 3.7 3.6 3.8 3.5 3.6 4.0 4.1 4.4 8.9 8.7 8.7 9.0 3.5 4.5 5.0 5.6 5.5 5.2 5.3 5.9
9.0 9.1 9.6 8.7 9.6 9.6 9.7 8.7 6.0 6.1 6.0 6.1 6.3 5.6 6.6 8.7 8.9 9.2 8.1 5.0 4.6 4.2 4.0 3.6 3.7 3.6 4.2 7.8 6.2 4.6 6.7 9.0 9.5 7.9 8.8 4.2 4.9 5.6 5.8 6.2 6.6 6.7 6.9
9.3 9.5 9.5 8.8 9.7 9.6 9.7 9.8 9.4 9.4 8.5 7.9 7.6 8.0 7.2 9.4 8.7 9.1 8.9 7.1 7.0 4.6 6.4 4.8 4.4 6.3 7.6 8.9 8.7 8.8 9.3 9.6 9.3 7.5 5.6 4.0 5.4 6.3 6.2 6.1 5.5 5.8 5.3
9.3 9.4 9.3 9.7 9.6 9.5 9.9 9.9 9.8 10.2 10.0 9.9 9.4 9.0 9.3 9.6 8.8 9.2 9.0 8.3 9.0 8.9 9.4 8.4 9.3 9.1 9.5 9.5 9.6 9.1 9.4 9.4 9.1 7.7 4.2 4.4 5.2 6.5 6.6 6.1 5.9 5.8 5.5
9.2 9.3 9.4 9.1 9.4 9.6 9.4 9.7 9.8 9.7 9.9 9.9 9.8 9.4 9.5 9.7 9.5 9.2 9.0 8.6 8.8 9.2 9.2 8.8 9.4 9.3 9.5 9.6 9.5 9.6 8.9 9.1 9.4 9.2 6.0 4.6 5.3 5.9 6.5 6.6 6.4 6.2 5.2
9.2 9.2 9.4 9.5 8.5 9.6 9.5 9.3 9.8 9.8 9.6 8.4 9.1 9.5 9.2 9.6 9.7 9.2 7.7 8.2 8.2 9.0 8.2 8.1 8.4 7.8 9.2 8.8 9.2 9.6 9.6 9.1 9.2 9.2 5.7 4.5 5.4 5.6 5.7 6.4 6.7 6.8 5.3
9.4 9.5 9.2 8.9 9.1 8.4 9.5 9.7 9.8 9.8 10.0 9.6 9.7 8.1 5.9 8.6 9.7 9.5 9.6 8.3 9.6 8.9 8.5 7.6 7.5 8.3 8.9 8.6 8.5 8.5 9.7 9.6 9.7 9.4 9.6 5.2 5.0 5.1 5.2 5.5 6.3 5.9 6.2
9.5 9.2 9.4 9.4 8.9 9.0 9.1 9.8 9.9 9.9 9.8 9.9 9.9 9.5 5.5 5.7 9.4 9.2 9.3 9.5 8.7 9.1 8.3 8.7 8.5 8.8 9.1 8.2 8.5 8.5 9.0 8.8 9.2 9.2 9.1 9.1 5.7 7.5 4.4 5.3 5.5 5.6 5.8
9.6 9.4 9.3 9.1 9.0 8.8 8.4 9.7 9.8 9.6 9.9 10.1 10.0 9.9 7.1 4.4 7.0 8.8 6.0 6.8 8.4 9.2 8.6 8.3 8.8 9.1 9.2 9.2 8.0 8.8 9.3 8.8 8.6 9.1 8.5 8.8 8.7 9.1 8.6 6.4 5.6 5.5 5.4
9.3 9.2 9.1 8.8 7.8 8.7 9.6 8.6 10.2 10.2 10.0 10.0 9.9 9.8 9.7 6.7 4.6 8.9 7.9 7.1 6.5 9.5 8.0 6.1 6.5 6.3 8.8 9.2 9.3 8.2 7.5 8.2 9.2 8.4 8.7 9.1 8.7 8.3 8.5 8.5 6.6 6.2 5.0
9.3 9.3 9.3 9.2 7.6 8.8 9.1 7.8 9.5 9.7 9.8 9.2 9.6 9.6 9.8 9.7 4.0 4.5 7.1 7.3 4.7 6.0 5.8 4.9 5.4 6.3 8.0 8.8 8.0 7.7 8.6 8.2 8.8 9.3 9.2 8.6 8.7 8.6 9.2 8.7 8.2 8.3 6.6
9.0 9.2 9.2 9.3 8.4 7.0 9.0 9.3 9.1 10.1 10.1 9.3 9.3 8.9 6.9 7.9 6.0 3.7 4.4 8.6 4.9 5.1 5.9 5.5 5.0 6.0 7.4 7.4 8.3 7.6 7.9 8.5 9.0 8.1 8.8 9.4 9.5 9.7 8.5 9.3 9.0 8.0 7.9
9.0 9.1 9.2 9.4 9.4 7.7 7.1 9.1 8.6 10.1 9.8 9.9 9.9 9.9 9.0 8.1 7.5 4.3 3.3 7.6 5.7 4.8 7.0 5.5 6.2 6.7 7.2 5.8 7.6 8.5 7.9 7.6 8.4 8.3 8.2 8.7 9.2 9.5 9.6 9.1 8.6 8.6 8.3
8.5 8.1 7.0 8.6 9.1 9.1 6.6 3.7 7.0 8.7 9.7 9.8 9.5 9.6 9.6 9.6 9.6 8.2 5.5 7.2 8.0 6.7 7.8 7.8 6.6 6.6 7.4 6.8 6.5 8.2 8.5 8.5 8.0 7.8 8.8 8.5 7.5 7.8 7.5 8.3 8.2 8.2 8.2
7.8 7.3 6.0 7.0 7.7 6.8 4.0 3.8 6.8 6.7 9.4 9.0 8.6 8.2 9.0 9.0 9.3 9.5 7.4 8.8 8.8 9.2 8.1 8.8 5.7 6.5 6.8 8.4 7.6 8.3 7.1 8.8 8.9 8.3 7.9 8.2 8.6 7.4 7.6 8.3 7.9 8.8 8.5
7.4 6.8 6.3 6.1 5.6 6.0 3.7 2.1 3.2 6.9 5.7 3.6 4.1 5.9 6.5 6.0 6.7 7.3 8.3 8.1 8.7 8.8 7.9 8.0 7.6 5.7 5.5 6.6 6.9 7.1 8.2 7.3 7.8 8.3 8.4 8.6 8.4 8.5 7.9 8.2 8.0 8.1 7.0
Wind_Speed
7 18 15 16 16 15 15 15 15 16 17 17 17 16 14 13 13 14 12 13 13 12 14 13 10 8 5 5 6 5 5 7 11 12 12 12 12 11 14 12 13 18 15
7 19 16 15 15 15 16 16 15 16 16 17 17 16 16 14 13 14 13 13 13 12 12 10 10 7 6 7 7 4 7 10 12 11 12 12 10 9 10 10 5 18 15
4 17 22 17 17 17 17 17 15 15 16 17 17 16 16 16 15 13 13 13 12 12 10 9 10 7 6 7 6 6 8 10 11 14 15 12 11 9 7 14 21 16 16
7 15 21 16 17 17 18 18 16 15 16 16 16 16 17 16 15 13 12 13 12 11 11 9 9 8 8 8 7 7 9 10 11 13 13 6 9 11 10 14 17 17 17
9 15 19 17 17 17 17 17 17 16 16 16 16 16 17 17 16 14 13 11 11 10 11 9 9 9 9 10 9 8 9 10 11 12 2 8 8 11 11 13 14 14 17
7 13 23 17 17 17 17 17 17 17 16 17 17 17 17 17 17 15 14 12 10 10 10 10 9 10 9 9 9 9 9 9 10 8 5 9 7 13 12 12 13 11 16
6 11 17 16 13 16 16 17 17 16 16 17 18 17 17 17 15 16 15 13 11 10 9 10 10 8 9 8 9 8 8 9 9 4 4 10 7 12 10 11 13 11 12
4 6 11 12 9 15 16 17 17 17 18 17 18 17 17 16 16 16 15 14 12 11 10 9 9 9 8 8 8 7 7 9 11 6 6 6 15 17 18 19 15 11 8
3 5 8 14 14 11 15 16 17 18 18 17 17 17 16 16 16 16 15 14 13 10 9 8 10 9 9 8 9 7 6 8 9 4 5 14 17 20 21 24 24 15 13
4 6 6 13 16 16 15 13 15 16 18 18 17 17 17 16 15 15 15 14 13 12 9 8 8 10 9 8 8 8 6 8 9 6 6 14 20 21 18 20 22 24 21
4 7 7 10 14 17 17 16 13 13 14 16 16 15 16 15 15 15 16 17 13 12 10 11 10 9 10 7 7 8 9 13 10 8 8 24 20 17 15 16 15 15 15
7 9 11 10 15 14 15 17 17 17 17 17 17 17 16 16 17 17 17 16 15 13 12 11 10 10 12 12 10 8 11 8 7 11 9 24 17 13 16 15 12 11 10
13 7 13 12 13 15 13 12 13 15 15 17 19 18 18 16 14 13 13 14 14 13 13 13 12 12 14 11 13 13 13 4 5 12 15 24 19 19 17 14 12 9 7
15 13 11 15 15 14 11 10 11 10 11 9 17 18 14 8 8 9 9 12 13 14 13 15 13 13 13 9 8 5 5 7 5 12 19 24 21 21 18 16 16 14 12
17 14 13 11 14 14 13 11 10 10 10 12 15 20 17 11 9 9 7 12 10 13 11 7 9 9 7 9 11 10 4 7 5 3 15 26 24 19 12 17 21 17 13
18 17 14 14 12 16 14 14 10 11 11 11 11 13 20 14 9 9 7 8 8 12 11 8 6 5 7 8 9 10 8 6 8 6 14 20 27 24 17 18 20 16 18
19 19 15 11 13 14 16 14 12 12 12 12 12 20 17 20 11 11 11 7 10 16 13 10 7 6 7 4 5 5 9 10 9 8 8 15 20 24 23 20 19 19 23
23 20 17 15 14 16 15 14 13 12 11 12 11 17 18 22 18 12 9 10 12 11 8 8 8 7 8 6 6 6 6 6 8 10 7 7 16 17 19 23 21 22 22
20 22 19 16 17 17 18 15 15 14 12 12 12 12 20 18 20 11 8 9 14 11 9 9 8 9 8 9 7 7 8 6 5 5 5 8 8 8 13 20 25 25 26
19 20 17 16 20 15 15 16 14 12 12 11 12 13 16 16 19 12 11 10 8 10 9 8 8 7 8 9 8 7 6 6 6 5 7 9 10 11 11 12 16 20 28
18 18 20 19 21 17 14 13 15 14 12 12 12 17 15 14 16 13 10 10 9 10 10 10 8 9 9 9 5 6 5 6 10 10 8 8 9 13 15 14 13 14 20
23 18 18 20 20 19 11 13 16 13 14 13 13 16 18 17 17 17 16 13 12 8 10 11 11 7 10 8 7 4 5 9 11 12 11 11 11 10 9 14 16 18 15
20 20 22 22 21 20 20 12 14 13 12 13 14 13 16 18 17 16 16 13 11 12 12 11 12 13 9 7 11 7 5 7 7 8 11 10 12 10 10 7 13 16 16
17 17 18 21 19 17 20 15 19 18 15 14 12 12 13 16 17 18 17 16 14 12 13 12 10 11 10 8 7 10 12 10 6 6 6 8 10 10 6 7 7 15 17
15 14 15 17 16 15 14 14 14 19 13 12 12 13 13 13 14 13 15 15 15 11 13 12 13 13 11 9 9 9 11 10 10 10 9 6 8 9 10 11 11 10 15
15 15 13 15 14 15 12 15 13 17 12 0 7 7 6 4 5 6 8 11 12 12 12 13 13 14 13 12 9 10 8 8 9 9 10 11 10 8 8 7 8 9 13
Wind_Direction
116 138 152 151 147 142 139 145 151 155 152 151 150 148 145 144 144 138 139 136 143 145 144 147 158 162 165 163 145 133 99 96 114 119 124 122 118 123 128 149 157 109 119
130 147 156 154 146 144 141 143 150 153 153 152 152 149 147 148 150 146 147 145 144 148 149 147 155 160 161 150 144 138 131 128 129 134 128 121 124 132 142 158 139 114 126
206 147 167 160 151 147 144 144 148 155 155 156 154 152 150 151 153 158 151 149 150 151 155 143 142 139 139 144 134 141 139 137 145 151 164 164 145 145 131 108 109 120 126
237 152 176 163 150 150 146 141 143 153 158 158 158 155 152 153 155 158 157 157 152 152 157 152 140 128 127 133 134 136 137 140 159 173 188 148 127 140 126 124 129 139 131
218 159 170 160 153 152 146 141 143 151 155 158 158 156 154 155 156 156 161 166 154 153 156 154 140 129 131 133 135 137 135 148 173 196 330 110 146 142 136 128 125 135 138
181 168 136 158 159 152 149 147 147 150 154 155 154 157 159 160 159 157 162 168 160 156 156 149 140 136 139 136 137 138 144 168 191 207 129 111 149 145 141 142 131 137 127
175 147 147 159 163 154 154 150 149 154 155 154 155 160 162 162 160 159 164 170 168 161 153 138 139 146 140 144 144 146 159 195 219 124 164 109 103 132 132 131 119 100 123
186 163 145 158 173 159 159 156 157 160 159 159 157 160 163 164 162 165 169 173 178 176 159 151 151 151 151 156 150 153 179 217 229 142 79 97 116 123 112 96 89 108 146
206 205 134 180 184 168 167 167 166 167 166 163 163 165 166 170 170 171 176 179 181 184 162 166 160 158 159 164 156 166 193 246 296 119 148 121 127 140 137 142 141 154 178
225 195 154 183 189 187 184 174 173 174 173 173 174 173 173 177 178 178 185 187 183 178 170 169 171 162 160 165 164 172 196 246 256 76 140 122 132 131 140 151 163 163 170
210 217 179 190 190 194 190 183 178 178 176 177 176 176 176 189 187 183 198 181 187 178 172 169 170 170 158 161 176 181 208 224 171 181 135 145 150 149 164 166 172 168 165
298 208 207 208 199 196 201 183 195 191 194 194 192 183 197 204 190 197 196 185 190 182 170 171 172 170 186 179 181 202 227 244 221 125 122 157 166 169 161 170 162 163 177
293 253 211 192 219 202 208 193 193 199 201 199 194 192 202 204 186 210 190 183 200 190 188 178 177 197 202 230 171 198 224 179 225 111 147 162 173 163 163 155 172 161 203
296 291 219 218 205 214 219 201 196 202 195 199 198 197 196 211 185 198 197 199 204 189 213 188 192 208 209 217 251 234 236 249 261 140 155 171 177 174 181 178 177 168 204
288 278 273 223 214 209 217 210 202 220 198 203 195 193 201 205 204 193 203 209 195 204 215 193 215 192 202 221 223 240 216 260 268 175 153 181 186 193 196 190 186 182 182
295 291 266 232 214 214 213 230 202 198 201 205 220 210 197 205 200 189 206 202 197 205 206 211 221 185 217 210 211 231 242 210 231 248 152 181 193 203 211 207 209 194 188
284 282 273 263 212 215 215 214 222 206 211 189 206 204 207 210 207 202 195 207 219 186 204 204 244 204 221 191 230 218 233 239 246 224 244 169 194 208 218 221 210 198 201
278 278 281 278 212 208 218 221 219 212 198 207 204 203 201 215 218 192 217 194 202 220 203 208 203 206 231 190 222 230 230 245 220 241 227 253 172 188 205 215 212 205 201
288 277 275 269 267 205 206 221 220 206 203 210 199 205 197 203 216 189 192 224 180 210 207 211 220 211 220 219 203 235 235 243 248 236 235 221 255 244 201 199 210 210 200
306 310 315 297 295 226 206 214 217 215 197 206 206 208 198 198 204 211 188 200 212 212 200 196 199 219 224 234 236 201 211 237 246 244 244 237 213 226 259 203 202 213 208
314 314 313 305 298 294 203 213 217 210 198 195 214 204 205 197 195 205 208 195 197 208 197 196 196 207 217 220 216 261 245 225 244 246 238 224 223 221 223 220 206 217 207
327 307 313 303 295 292 244 205 221 207 205 196 204 195 202 204 191 199 199 200 192 203 195 187 196 205 217 211 202 213 244 240 230 238 243 246 241 242 229 223 226 220 209
321 324 314 302 294 284 286 237 217 213 206 202 200 201 197 200 197 195 198 206 187 200 201 195 196 208 208 198 213 209 213 239 265 196 215 234 244 235 245 215 228 241 223
321 318 309 308 301 307 325 309 207 217 205 204 201 199 201 202 200 190 203 207 200 196 222 189 193 200 205 199 211 229 252 282 288 274 195 209 232 245 233 236 236 225 235
328 321 316 311 308 314 333 320 265 225 215 199 196 189 194 186 204 208 189 213 209 211 201 206 187 201 202 206 205 217 232 240 246 263 273 214 199 220 227 226 233 247 222
337 332 321 329 332 332 355 344 327 237 248 33 356 203 129 122 152 249 223 211 223 216 198 213 196 197 202 212 203 217 217 208 226 242 250 257 258 221 213 210 216 217 234